Location: Quaker Farms
(41.4276°N, 73.1557°W)
Time: 01:37:38
(UTC+00:00)

Altair - Pass Details

Date: 21 June 2021
Orbit: 1501 x 1682 km, 47.2° (Epoch: 23 July)

Event Time Altitude Azimuth Distance (km) Brightness Sun altitude
Rises 22:58:42 0° 296° (WNW) 4,796 12.0 14.5°
Reaches altitude 10° 23:01:46 10° 295° (WNW) 3,833 12.3 14.0°
Maximum altitude 23:11:37 82° 211° (SSW) 1,669 8.0 12.3°
Drops below altitude 10° 23:21:44 10° 125° (SE) 3,932 9.1 10.5°
Sets 23:24:55 0° 125° (SE) 4,924 9.5 9.9°
